Decorah, Iowa, United States (52101)
Lat: 43.30N, Lon: 91.79W
Wx Zone: IAZ010
Local Info
Past Weather Observations for Today

NOTE: This archive is for the closest National Weather Service station to Decorah. Information may differ from the station used for current weather conditions.

Click here for Long-term Archive

Time Weather Temperature Dewpoint Humidity Pressure Winds Precip Visibility
17:35
Overcast
Light Snow
25°F / -4°C 21°F / -6°C 86% 30.18 in
(1022 mb)
N 8.1 mph
(N 13 kph)
- 2SM
17:15
Overcast
Light Snow
25°F / -4°C 21°F / -6°C 86% 30.18 in
(1022 mb)
N 9.2 mph
(N 15 kph)
- 2SM
16:55
Overcast
Light Snow
25°F / -4°C 23°F / -5°C 93% 30.18 in
(1022 mb)
NNW 11.5 mph
(NNW 19 kph)
- 2SM
16:35
Overcast
Light Snow
27°F / -3°C 23°F / -5°C 86% 30.15 in
(1021 mb)
NNW 6.9 mph
(NNW 11 kph)
- 6SM
16:15
Mostly Cloudy
27°F / -3°C 21°F / -6°C 80% 30.15 in
(1021 mb)
N 6.9 mph
(N 11 kph)
- 9SM
15:55
Partly Cloudy
Light Snow
27°F / -3°C 21°F / -6°C 80% 30.15 in
(1021 mb)
N 9.2 mph
(N 15 kph)
- 3SM
15:35
Clear
Light Snow
27°F / -3°C 23°F / -5°C 86% 30.15 in
(1021 mb)
N 9.2 mph
(N 15 kph)
- 3SM
15:15
Partly Cloudy
Light Unknown Precip
27°F / -3°C 23°F / -5°C 86% 30.12 in
(1020 mb)
NNE 6.9 mph
(NNE 11 kph)
- 3SM
14:55
Mostly Cloudy
Light Unknown Precip
27°F / -3°C 21°F / -6°C 80% 30.12 in
(1020 mb)
N 9.2 mph
(N 15 kph)
- 8SM
14:35
Partly Cloudy
27°F / -3°C 21°F / -6°C 80% 30.12 in
(1020 mb)
N 11.5 mph
(N 19 kph)
- 10SM
14:15
Partly Cloudy
27°F / -3°C 21°F / -6°C 80% 30.09 in
(1019 mb)
NE 8.1 mph
(NE 13 kph)
- 10SM
13:55
Clear
27°F / -3°C 21°F / -6°C 80% 30.09 in
(1019 mb)
Variable 5.8 mph
(Variable 9 kph)
- 10SM
13:35
Clear
27°F / -3°C 21°F / -6°C 80% 30.09 in
(1019 mb)
NNE 8.1 mph
(NNE 13 kph)
- 10SM
13:15
Partly Cloudy
27°F / -3°C 21°F / -6°C 80% 30.09 in
(1019 mb)
NNE 6.9 mph
(NNE 11 kph)
- 10SM
12:55
Mostly Cloudy
28°F / -2°C 21°F / -6°C 74% 30.09 in
(1019 mb)
NE 6.9 mph
(NE 11 kph)
- 10SM
12:35
Clear
27°F / -3°C 21°F / -6°C 80% 30.06 in
(1018 mb)
ENE 6.9 mph
(ENE 11 kph)
- 10SM
12:15
Clear
27°F / -3°C 21°F / -6°C 80% 30.06 in
(1018 mb)
ENE 6.9 mph
(ENE 11 kph)
- 10SM
11:55
Clear
27°F / -3°C 21°F / -6°C 80% 30.06 in
(1018 mb)
E 5.8 mph
(E 9 kph)
- 10SM
11:35
Clear
27°F / -3°C 21°F / -6°C 80% 30.06 in
(1018 mb)
ESE 6.9 mph
(ESE 11 kph)
- 10SM
11:15
Clear
25°F / -4°C 21°F / -6°C 86% 30.06 in
(1018 mb)
ENE 6.9 mph
(ENE 11 kph)
- 9SM
10:55
Partly Cloudy
25°F / -4°C 21°F / -6°C 86% 30.06 in
(1018 mb)
E 5.8 mph
(E 9 kph)
- 9SM
10:35
Clear
23°F / -5°C 19°F / -7°C 86% 30.06 in
(1018 mb)
E 6.9 mph
(E 11 kph)
- 9SM
10:15
Clear
23°F / -5°C 19°F / -7°C 86% 30.06 in
(1018 mb)
E 10.4 mph
(E 17 kph)
- 9SM
09:55
Clear
23°F / -5°C 19°F / -7°C 86% 30.06 in
(1018 mb)
E 8.1 mph
(E 13 kph)
- 9SM
09:35
Mostly Cloudy
23°F / -5°C 19°F / -7°C 86% 30.06 in
(1018 mb)
E 8.1 mph
(E 13 kph)
- 9SM
09:15
Overcast
21°F / -6°C 18°F / -8°C 86% 30.06 in
(1018 mb)
E 10.4 mph
(E 17 kph)
- 9SM
08:55
Mostly Cloudy
21°F / -6°C 18°F / -8°C 86% 30.06 in
(1018 mb)
SE 8.1 mph
(SE 13 kph)
- 9SM
08:35
Partly Cloudy
21°F / -6°C 18°F / -8°C 86% 30.06 in
(1018 mb)
E 9.2 mph
(E 15 kph)
- 9SM
08:15
Mostly Cloudy
21°F / -6°C 18°F / -8°C 86% 30.06 in
(1018 mb)
ESE 10.4 mph
(ESE 17 kph)
- 9SM
07:55
Mostly Cloudy
19°F / -7°C 18°F / -8°C 93% 30.04 in
(1017 mb)
E 9.2 mph
(E 15 kph)
- 9SM
07:35
Overcast
19°F / -7°C 16°F / -9°C 86% 30.04 in
(1017 mb)
E 8.1 mph
(E 13 kph)
- 9SM
07:15
Overcast
19°F / -7°C 16°F / -9°C 86% 30.04 in
(1017 mb)
E 11.5 mph
(E 19 kph)
- 10SM
06:55
Overcast
19°F / -7°C 16°F / -9°C 86% 30.04 in
(1017 mb)
E 8.1 mph
(E 13 kph)
- 10SM
06:35
Mostly Cloudy
19°F / -7°C 16°F / -9°C 86% 30.04 in
(1017 mb)
SE 6.9 mph
(SE 11 kph)
- 10SM
06:15
Overcast
19°F / -7°C 16°F / -9°C 86% 30.04 in
(1017 mb)
SE 6.9 mph
(SE 11 kph)
- 10SM
05:55
Overcast
19°F / -7°C 18°F / -8°C 93% 30.04 in
(1017 mb)
SSE 8.1 mph
(SSE 13 kph)
- 10SM
05:35
Overcast
19°F / -7°C 16°F / -9°C 86% 30.04 in
(1017 mb)
SE 5.8 mph
(SE 9 kph)
- 10SM
05:15
Overcast
19°F / -7°C 16°F / -9°C 86% 30.04 in
(1017 mb)
SE 6.9 mph
(SE 11 kph)
- 10SM
04:55
Overcast
19°F / -7°C 16°F / -9°C 86% 30.01 in
(1016 mb)
SE 9.2 mph
(SE 15 kph)
- 10SM
04:35
Overcast
19°F / -7°C 16°F / -9°C 86% 30.01 in
(1016 mb)
SE 9.2 mph
(SE 15 kph)
- 10SM
04:15
Overcast
19°F / -7°C 16°F / -9°C 86% 30.04 in
(1017 mb)
SE 6.9 mph
(SE 11 kph)
- 10SM
03:55
Overcast
19°F / -7°C 16°F / -9°C 86% 30.04 in
(1017 mb)
Variable 4.6 mph
(Variable 7 kph)
- 10SM
03:35
Overcast
19°F / -7°C 16°F / -9°C 86% 30.04 in
(1017 mb)
SE 3.5 mph
(SE 6 kph)
- 10SM
03:15
Overcast
19°F / -7°C 16°F / -9°C 86% 30.04 in
(1017 mb)
SE 3.5 mph
(SE 6 kph)
- 10SM
02:55
Overcast
19°F / -7°C 16°F / -9°C 86% 30.04 in
(1017 mb)
SE 6.9 mph
(SE 11 kph)
- 10SM
02:35
Overcast
18°F / -8°C 16°F / -9°C 93% 30.04 in
(1017 mb)
SE 8.1 mph
(SE 13 kph)
- 10SM
02:15
Overcast
18°F / -8°C 14°F / -10°C 86% 30.04 in
(1017 mb)
Variable 6.9 mph
(Variable 11 kph)
- 10SM
01:55
Mostly Cloudy
18°F / -8°C 14°F / -10°C 86% 30.04 in
(1017 mb)
SE 5.8 mph
(SE 9 kph)
- 10SM
01:35
Partly Cloudy
18°F / -8°C 14°F / -10°C 86% 30.04 in
(1017 mb)
SE 6.9 mph
(SE 11 kph)
- 10SM
01:15
Overcast
18°F / -8°C 14°F / -10°C 86% 30.04 in
(1017 mb)
SSE 6.9 mph
(SSE 11 kph)
- 10SM
00:55
Overcast
19°F / -7°C 14°F / -10°C 79% 30.06 in
(1018 mb)
SSE 6.9 mph
(SSE 11 kph)
-
00:35
Overcast
19°F / -7°C 14°F / -10°C 79% 30.06 in
(1018 mb)
SSE 6.9 mph
(SSE 11 kph)
- 10SM
00:15
Overcast
18°F / -8°C 14°F / -10°C 86% 30.06 in
(1018 mb)
SE 5.8 mph
(SE 9 kph)
- 10SM
Time Weather Temperature Dewpoint Humidity Pressure Winds Precip Visibility


Weather for websites

WeatherForYou.com, LLC is not responsible for any damages or problems caused by this service. Current weather conditions are obtained from the closest station including government and personal stations which may have varying degrees of accuracy. Weather forecasts are derived from the NOAA NDFD. Like all things, this site belongs to Jesus Christ... He just trusts me to maintain it. If you have any questions or comments email webmaster@weatherforyou.com

Copyright © 2014, WeatherForYou.com LLC. All rights reserved.